This demonstration page uses our WeatherBlox Daily Observations layout. Learn more.

Left ArrowRight Arrow

39.92423, -83.80882

Hourly Observations for January 21, 2018

Temp ( °F °C ) Dew Point ( °F °C ) Humidity (%) Winds ( mph kmh ) Pressure ( in mb ) Visibility ( mi km ) Precip ( " mm )
12:04 am 00:04 Cloudy with Light Rain 37 3 36 2 93 93 N N/A 30.15 1021 1 2 N/A
12:11 am 00:11 Cloudy with Light Rain 36 2 36 2 100 100 SE 3 6 30.15 1021 1 1 N/A
12:23 am 00:23 Cloudy with Light Rain 36 2 36 2 100 100 N N/A 30.15 1021 0 0 N/A
12:56 am 00:56 Cloudy with Light Rain 35 1.7 35 1.7 100 100 SE 3 6 30.12 1020 0 0 N/A
1:56 am 01:56 Cloudy with Light Rain 38 3.3 37 2.8 97 97 SE 5 7 30.12 1020 0 0 N/A
2:29 am 02:29 Cloudy with Light Rain 37 3 37 3 100 100 SSE 5 7 30.15 1021 1 1 N/A
2:46 am 02:46 Cloudy with Light Rain 37 3 37 3 100 100 SSE 7 11 30.15 1021 1 1 N/A
2:52 am 02:52 Cloudy with Light Rain 37 3 37 3 100 100 SSE 8 13 30.15 1021 1 1 N/A
2:53 am 02:53 Cloudy with Light Rain 38 3.3 38 3.3 100 100 SSE 7 11 30.12 1020 1 1 N/A
3:27 am 03:27 Cloudy with Light Rain 39 4 37 3 93 93 S 6 9 30.12 1020 1 2 N/A
3:42 am 03:42 Cloudy with Light Rain 39 4 39 4 100 100 S 5 7 30.12 1020 3 4 N/A
3:49 am 03:49 Cloudy with Light Rain 39 4 39 4 100 100 S 6 9 30.12 1020 3 5 N/A
3:56 am 03:56 Cloudy with Light Rain 39 3.9 39 3.9 100 100 S 5 7 30.11 1020 3 5 N/A
4:45 am 04:45 Cloudy with Light Rain 39 4 39 4 100 100 S 7 11 30.12 1020 8 13 N/A
4:56 am 04:56 Cloudy with Light Rain 39 3.9 39 3.9 100 100 SSW 5 7 30.11 1020 8 13 N/A
5:56 am 05:56 Cloudy 41 5 40 4.4 96 96 SSW 5 7 30.10 1019 10 16 N/A
6:56 am 06:56 Cloudy 41 5 39 3.9 93 93 S 6 9 30.11 1020 10 16 N/A
7:56 am 07:56 Cloudy 41 5 39 3.9 93 93 S 5 7 30.11 1020 10 16 N/A
8:56 am 08:56 Cloudy 43 6.1 39 3.9 86 86 SSW 8 13 30.11 1020 10 16 N/A
9:56 am 09:56 Cloudy 44 6.7 39 3.9 83 83 SSW 9 15 30.12 1020 10 16 N/A
10:23 am 10:23 Cloudy 45 7 39 4 81 81 SW 9 15 30.12 1020 10 16 N/A
10:56 am 10:56 Cloudy 46 7.8 40 4.4 79 79 SSW 7 11 30.12 1020 10 16 N/A
11:56 am 11:56 Cloudy 47 8.3 41 5 80 80 SSW 8 13 30.10 1019 10 16 N/A
12:35 pm 12:35 Cloudy 48 9 43 6 82 82 SW 8 13 30.09 1019 10 16 N/A
12:56 pm 12:56 Cloudy 49 9.4 42 5.6 77 77 SW 9 15 30.07 1018 10 16 N/A
1:56 pm 13:56 Cloudy 49 9.4 43 6.1 80 80 SSW 7 11 30.05 1018 10 16 N/A
2:56 pm 14:56 Cloudy 50 10 44 6.7 80 80 SSW 5 7 30.04 1017 10 16 N/A
3:56 pm 15:56 Cloudy 50 10 45 7.2 83 83 S 5 7 30.05 1018 10 16 N/A
4:56 pm 16:56 Cloudy 49 9.4 45 7.2 86 86 SSE 5 7 30.06 1018 10 16 N/A
6:56 pm 18:56 Cloudy 45 7.2 44 6.7 97 97 SSE 5 7 30.07 1018 10 16 N/A
7:11 pm 19:11 Cloudy 45 7 45 7 100 100 SE 6 9 30.09 1019 10 16 N/A
7:56 pm 19:56 Cloudy 47 8.3 45 7.2 93 93 S 6 9 30.07 1018 10 16 N/A
8:56 pm 20:56 Cloudy 47 8.3 46 7.8 97 97 SSE 5 7 30.07 1018 9 14 N/A
9:14 pm 21:14 Cloudy 46 8 46 8 100 100 S 5 7 30.09 1019 8 13 N/A
9:49 pm 21:49 Cloudy with Mist and Fog 46 8 45 7 93 93 SSE 5 7 30.06 1018 4 6 N/A
9:56 pm 21:56 Cloudy with Mist and Fog 45 7.2 45 7.2 100 100 SSE 5 7 30.05 1018 3 5 N/A
10:22 pm 22:22 Cloudy with Light Rain 46 8 46 8 100 100 SSE 6 9 30.06 1018 6 10 N/A
10:56 pm 22:56 Cloudy with Light Rain 46 7.8 46 7.8 100 100 SSE 7 11 30.05 1018 3 5 N/A
11:07 pm 23:07 Cloudy with Light Rain 45 7 45 7 100 100 SE 5 7 30.06 1018 2 3 N/A
11:22 pm 23:22 Cloudy with Light Rain 45 7 45 7 100 100 SE 6 9 30.06 1018 1 1 0.01 0.25
11:32 pm 23:32 Cloudy with Light Rain 45 7 45 7 100 100 SE 7 11 30.06 1018 1 1 0.01 0.25
11:56 pm 23:56 Cloudy with Fog 45 7.2 45 7.2 100 100 SE 6 9 30.03 1017 1 1 0.01 0.25

Powered by AerisWeather